Regional Weather Roundup
Issued by NWS

Home | Current Version | Previous Version | Text Only | Print | Product List | Glossary On
Versions: 1 2 3 4 5 6 7 8 9 10 11 12 13 14 15 16 17 18 19 20 21 22 23 24 25 26 27
000
ASUS46 KSEW 270710
RWRWA

WASHINGTON REGIONAL WEATHER ROUNDUP
NATIONAL WEATHER SERVICE SEATTLE WA
1200 AM PDT THU JUL 27 2017

NOTE:"FAIR" INDICATES FEW OR NO CLOUDS BELOW 12,000 FEET WITH NO
SIGNIFICANT WEATHER AND/OR OBSTRUCTIONS TO VISIBILITY.

WAZ507-509-555>559-270800-
SEATTLE, TACOMA, EVERETT, AND VICINITY

CITY           SKY/WX    TMP DP  RH WIND       PRES   REMARKS
EVERETT        CLEAR     57  53  86 N9G17     30.07S
BOEING FIELD   CLEAR     68  56  65 CALM      30.05R
RENTON         CLEAR     69  58  67 CALM      30.04R
SEATAC AIRPORT PTCLDY    63  55  75 W3        30.07R
JBLM-MCCHORD   CLEAR     63  59  88 NW7       30.08R
PUYALLUP       FAIR      63  57  82 CALM      30.08R
BREMERTON      CLEAR     58  55  90 S5        30.07R
JBLM-FT LEWIS  CLEAR     61  58  91 W6        30.07R
TACOMA NARROWS CLEAR     59  55  87 W6        30.08R
$$

WAZ001-503-506-510-514-515-270800-
NORTH INTERIOR

CITY           SKY/WX    TMP DP  RH WIND       PRES   REMARKS
BELLINGHAM     CLEAR     61  54  77 S10       30.02R
FRIDAY HARBOR  CLEAR     55  53  93 SW7       30.03R
EASTSOUND      CLEAR     59  54  82 S10       30.01R
PORT ANGELES   CLEAR     55  52  89 W12       30.08S
EDIZ HOOK      FAIR      56  51  82 W17G28    30.07S
PORT TOWNSEND  FAIR      57  54  88 VRB6      30.06S
NAS WHIDBEY    PTCLDY    57  50  77 W16       30.10R
ARLINGTON      CLEAR     56  52  86 NW7       30.08R
BURLINGTON     CLEAR     57  52  82 S8        30.07S
$$

WAZ020-022-039-040-504-511-512-270800-
SOUTHWEST INTERIOR

CITY           SKY/WX    TMP DP  RH WIND       PRES   REMARKS
SHELTON        CLOUDY    59  55  87 SW16      30.06S
OLYMPIA        CLEAR     57  54  89 S5        30.08R
CHEHALIS       FAIR      59  55  88 SW3       30.10R
KELSO          CLOUDY    62  57  83 NW10      30.11S
VANCOUVER      CLEAR     65  58  78 VRB7      30.07R
SCAPPOOSE, OR  CLEAR     62  56  80 N7        30.07R
PORTLAND, OR   CLEAR     65  57  75 NW9       30.07R
$$

WAZ021-516-517-270800-
WASHINGTON COAST

CITY           SKY/WX    TMP DP  RH WIND       PRES   REMARKS
FORKS          CLOUDY    57  54  89 VRB3      30.12S
HOQUIAM        CLOUDY    58  54  86 W10       30.12S
ASTORIA, OR    CLOUDY    59  52  77 NW9       30.13S
$$

WAZ019-023-024-040-567>569-270800-
CASCADE MOUNTAINS AND COLUMBIA GORGE

CITY           SKY/WX    TMP DP  RH WIND       PRES   REMARKS
STAMPEDE PASS  CLEAR     55  50  83 SW6       30.14F
TROUTDALE, OR  CLEAR     66  57  72 VRB5      30.07R
HOOD RIVER, OR SUNNY     70  55  60 CALM      30.00S
THE DALLES, OR CLEAR     76  55  48 NW10      29.94R
$$

WAZ026-027-041>044-520-521-270800-
EAST SLOPES

CITY           SKY/WX    TMP DP  RH WIND       PRES   REMARKS
OMAK           CLEAR     72  44  36 W9        29.88R
WENATCHEE      CLEAR     78  49  35 NW17      29.91S
ELLENSBURG     CLEAR     72  51  47 NW18G28   29.97S
YAKIMA         CLEAR     78  53  41 NW6       29.93S
SUNNYSIDE ARPT   N/A     62  57  83 N3        29.90R
YAKIMA TC      FAIR      73  43  34 SE9       29.93R
$$

WAZ028-034-035-270800-
COLUMBIA BASIN

CITY           SKY/WX    TMP DP  RH WIND       PRES   REMARKS
EPHRATA        CLEAR     77  43  29 NE5       29.89R
MOSES LAKE     CLEAR     74  52  46 S6        29.89R
PASCO          CLEAR     81  54  39 SW5       29.88R
RICHLAND ARPT  SUNNY     80  50  34 SW6       29.87R
HERMISTON, OR  PTCLDY    80  53  39 SW9       29.92R
$$

WAZ036>038-270800-
NORTHEAST WASHINGTON

CITY           SKY/WX    TMP DP  RH WIND       PRES   REMARKS
SPOKANE GEIGER PTCLDY    76  42  29 S5        29.98R
SPOKANE FELTS  CLEAR     72  43  35 N3        29.96S
FAIRCHILD AFB  PTCLDY    73  43  33 CALM      29.98S
COEURDALENE,ID CLEAR     66  50  56 NE3       29.99R
DEER PARK      CLEAR     62  43  49 CALM      29.96F
$$

WAZ029>033-270800-
SOUTHEAST WASHINGTON

CITY           SKY/WX    TMP DP  RH WIND       PRES   REMARKS
PULLMAN        CLEAR     66  45  46 CALM      30.02S
LEWISTON, ID   PTCLDY    76  42  29 S6        29.92F
WALLA WALLA    PTCLDY    79  50  36 SW9       29.93R
PENDLETON, OR  PTCLDY    79  46  31 SW10      29.96R
$$




USA.gov is the U.S. government's official web portal to all federal, state and local government web resources and services.